Find Starlink 30524

NORAD ID: 57965 Int'l Des: 2023-151 Owner: SPXS Country: US Constellation: starlink operational
LEOCIRCULAR

当前视图

正在加载3D地球...

About Starlink 30524

Starlink 30524 (NORAD 57965) is a starlink constellation satellite (v2 mini) launched Sep 30, 2023 by SPXS of US. It operates in LEO, CIRCULAR orbit with a mass of 730.00 kg.

关于 Starlink 30524

正在加载描述...

即将过境

Passes for default location (London). Set your location on the main map for personalized predictions.

高度历史

Loading altitude history...

两行轨道根数

1 57965U 23151B 26168.20638786 -.00002531 00000-0 -82517-4 0 9997
2 57965 42.9933 134.2145 0002377 277.1209 82.9372 15.27558828150986
Epoch: Jun 17, 2026 • Age: 25 hours

当前状态

高度 494.3 km
速度 7.62 km/s
星下点 -41.37°S, 27.82°E
发射日期 Sep 30, 2023
运行时间 2.7 years
类型 internet

技术详情

分类 Payload
质量 730.00 kg
干质量 700.00 kg
总质量 730.00 kg
长度 0.30 m
直径 4.10 m
跨度 29.00 m
形状 Box + pan
制造商 SPXS
平台类型 Starlink V2M
阶段状态 In Orbit
所有者/国家 SPXS/US

Most Searched